#timestamp,LO_Frequency,Hit,StdDev 
1530403215.0,286046995.4,P
1530403215.9,286046995.4,P
1530403235.8,286046994.9,P
1530403255.6,286046997.6,Y
1530403275.4,286046998.9,P
1530403295.3,286046995.1,N
1530403315.1,286046998.8,N
1530403335.9,286046994.0,Y
1530403355.7,286047000.7,P
1530403375.5,286046998.1,N
1530403395.4,286047002.7,N
1530403415.2,286047000.4,N
1530403435.1,286047000.1,N
1530403436.0,286047000.1,N
1530403455.8,286047000.9,N
1530403475.6,286047000.7,N
1530403495.5,286047000.6,N
1530403515.3,286047002.2,N
1530403535.1,286047001.7,N
1530403555.9,286047002.0,N
1530403575.7,286047004.4,N
1530403595.6,286047003.6,N
1530403615.4,286047002.9,N
1530403635.2,286047006.5,Y
1530403655.1,286047004.7,P
1530403656.0,286047004.7,N
1530403675.8,286047005.6,P
1530403695.6,286047004.1,N
1530403715.5,286047005.7,Y
1530403735.3,286046997.4,P
1530403755.2,286046997.6,N
1530403775.0,286046994.5,N
1530403775.9,286046994.5,N
1530403795.7,286046995.2,N
1530403815.6,286046996.1,N
1530403835.4,286046993.5,N
1530403855.3,286046994.8,N
1530403875.1,286046992.3,N
1530403876.0,286046992.3,N
1530403895.8,286046992.5,N
1530403915.7,286046993.8,N
1530403965.5,286046996.0,E
1530403975.5,286046998.7,N
1530403995.3,286047003.7,P
1530404015.1,286047007.2,N
1530404035.9,286047007.5,N
1530404055.7,286047005.0,N
1530404075.5,286047004.7,N
1530404095.4,286047006.9,N
1530404115.2,286047006.8,N
1530404135.1,286047003.7,N
1530404136.0,286047003.7,N
1530404155.8,286047001.4,N
1530404175.6,286047005.1,N
1530404195.5,286047003.0,N
1530404215.3,286047003.9,N
1530404235.2,286047003.1,N
1530404255.9,286047005.4,N
1530404275.7,286047005.9,N
1530404295.6,286047005.5,N
1530404315.4,286047004.5,N
1530404335.2,286047004.7,N
1530404355.1,286047006.8,Y
1530404356.0,286047006.8,P
1530404375.8,286047001.8,N
1530404395.7,286047001.8,N
1530404415.5,286047001.6,N
1530404435.3,286047001.9,N
1530404455.2,286046999.7,N
1530404475.0,286047002.6,N
1530404475.9,286047002.6,N
1530404495.7,286047000.2,N
1530404515.6,286046998.9,N
1530404535.4,286046996.8,N
1530404555.3,286047001.2,N
1530404575.1,286046998.1,N
1530404576.0,286046998.1,N
1530404595.8,286046999.4,N
1530404615.7,286046999.6,N
1530404635.5,286047002.7,N
1530404655.4,286047002.4,N
1530404675.2,286047002.1,N
1530404695.0,286046998.9,N
1530404695.9,286046998.9,N
1530404715.8,286047000.4,N
1530404735.6,286047000.0,N
1530404755.4,286046998.7,N
1530404775.3,286046996.5,N
1530404795.1,286046997.1,N
1530404815.9,286046995.0,N
1530404835.7,286046996.1,N
1530404855.5,286046997.0,N
1530404875.4,286046996.7,N
1530404895.2,286046999.3,N
1530404915.0,286047000.8,N
1530404915.9,286047000.8,N
1530404935.8,286047000.5,N
1530404955.6,286047001.4,N
1530404975.5,286047001.8,N
1530404995.3,286047002.3,N
1530405015.1,286046997.5,N
1530405035.9,286046996.7,N
1530405055.7,286046995.3,N
1530405075.5,286046997.9,N
1530405095.4,286046997.9,N
1530405115.2,286046999.4,N
1530405135.1,286046996.7,N
1530405136.0,286046996.7,N
1530405155.8,286046997.9,N
1530405175.6,286046993.7,N
1530405195.5,286046994.2,N
1530405215.3,286046992.8,Y
1530405235.2,286046993.9,P
1530405255.9,286046996.6,N
1530405275.7,286046999.9,N
1530405295.6,286047000.9,N
1530405315.4,286046998.2,N
1530405335.2,286046998.2,N
1530405355.1,286047000.5,N
1530405356.0,286047000.5,N
1530405375.8,286046999.7,N
1530405395.7,286047004.1,N
1530405415.5,286047004.1,N
1530405435.3,286047003.0,N
1530405455.2,286047001.3,N
1530405475.0,286047004.0,N
1530405475.9,286047004.0,N
1530405495.7,286047001.7,N
1530405515.6,286047002.7,N
1530405535.4,286047001.0,N
1530405555.3,286047000.4,N
1530405575.1,286047001.0,N
1530405595.8,286047001.6,N
1530405615.7,286047002.3,N
1530405635.5,286047002.1,N
1530405655.3,286047004.2,N
1530405675.2,286047005.1,N
1530405695.0,286047002.5,N
1530405695.9,286047002.5,N
1530405715.8,286047001.1,N
1530405735.6,286047000.6,N
1530405755.4,286047001.7,N
1530405775.3,286047001.3,N
1530405795.1,286047003.7,N
1530405815.9,286047001.5,N
1530405835.7,286047001.9,N
1530405855.5,286047002.3,N
1530405875.4,286046999.3,N
1530405895.2,286047001.0,N
1530405915.0,286047002.2,N
1530405915.9,286047002.2,N
1530405935.8,286047003.1,N
1530405955.6,286047003.2,N
1530405975.5,286047001.7,N
1530405995.3,286047002.0,N
1530406015.1,286046996.5,N
1530406035.9,286046999.3,N
1530406055.7,286047000.6,N
1530406075.5,286047002.1,N
1530406095.4,286046999.9,N
1530406115.2,286047000.4,N
1530406135.1,286047002.7,N
1530406136.0,286047002.7,N
1530406155.8,286046999.9,N
1530406175.6,286047002.5,N
1530406195.5,286047002.4,N
1530406215.3,286047001.7,N
1530406235.1,286047003.7,N
1530406255.9,286047001.6,N
1530406275.7,286047002.1,N
1530406295.6,286046999.7,N
1530406315.4,286047000.8,N
1530406335.2,286047004.3,N
1530406355.1,286047000.2,N
1530406356.0,286047000.2,N
1530406375.8,286047000.7,N
1530406395.7,286047001.1,N
1530406415.5,286046999.8,N
1530406435.3,286047004.1,N
1530406455.2,286047004.0,N
1530406475.9,286047003.0,N
1530406495.7,286047005.6,Y
1530406515.6,286047004.4,P
1530406535.4,286047001.0,N
1530406555.3,286047002.6,N
1530406575.1,286047001.7,N
1530406576.0,286047001.7,N
1530406595.8,286047001.9,N
1530406615.7,286047004.0,Y
1530406635.5,286047000.9,P
1530406655.3,286047002.4,P
1530406675.2,286047001.6,N
1530406695.0,286047000.5,N
1530406695.9,286047000.5,N
1530406715.8,286046998.5,N
1530406735.6,286046999.0,N
1530406755.4,286046997.7,N
1530406775.3,286046995.9,N
1530406795.1,286046997.3,N
